| time (UTC) | temp F | wind direction | speed MPH | gust MPH | rain 1hr in | rain 24hr in | rain mn in | humidity % | barometer mb |
| 20260508003039 | 49 | 320 | 2.0 | 7.0 | 0.00 | 0.15 | 0.01 | 49 | 1007.1 |
| 20260508001539 | 49 | 285 | 1.0 | 5.0 | 0.00 | 0.15 | 0.01 | 51 | 1007.0 |
| 20260508000038 | 50 | 310 | 2.0 | 5.0 | 0.00 | 0.15 | 0.01 | 50 | 1006.8 |
| 20260507234538 | 50 | 298 | 1.0 | 6.0 | 0.00 | 0.23 | 0.01 | 49 | 1006.5 |
| 20260507233038 | 52 | 286 | 4.0 | 8.0 | 0.00 | 0.23 | 0.01 | 49 | 1006.2 |
| 20260507231546 | 52 | 176 | 4.0 | 11.0 | 0.00 | 0.23 | 0.01 | 48 | 1005.9 |
| 20260507230035 | 53 | 24 | 6.0 | 12.0 | 0.00 | 0.23 | 0.01 | 47 | 1005.6 |
| 20260507224537 | 54 | 360 | 5.0 | 12.0 | 0.00 | 0.25 | 0.01 | 50 | 1005.4 |
| 20260507223035 | 54 | 23 | 5.0 | 12.0 | 0.00 | 0.25 | 0.01 | 43 | 1005.3 |
| 20260507221533 | 55 | 31 | 5.0 | 14.0 | 0.00 | 0.25 | 0.01 | 44 | 1005.3 |
| 20260507220033 | 55 | 32 | 3.0 | 13.0 | 0.00 | 0.25 | 0.01 | 42 | 1005.1 |
| 20260507214532 | 55 | 319 | 4.0 | 10.0 | 0.00 | 0.26 | 0.01 | 43 | 1005.2 |
| 20260507213032 | 56 | 297 | 0.0 | 12.0 | 0.00 | 0.26 | 0.01 | 40 | 1005.1 |
| 20260507211531 | 57 | 6 | 5.0 | 15.0 | 0.00 | 0.26 | 0.01 | 40 | 1005.0 |
| 20260507210031 | 57 | 6 | 4.0 | 15.0 | 0.00 | 0.26 | 0.01 | 40 | 1004.8 |
| 20260507204530 | 57 | 326 | 4.0 | 16.0 | 0.00 | 0.31 | 0.01 | 44 | 1004.7 |
| 20260507203029 | 57 | 6 | 3.0 | 16.0 | 0.00 | 0.31 | 0.01 | 40 | 1004.5 |
| 20260507201527 | 57 | 69 | 6.0 | 16.0 | 0.00 | 0.31 | 0.01 | 38 | 1004.3 |
| 20260507200041 | 57 | 44 | 7.0 | 13.0 | 0.00 | 0.31 | 0.01 | 36 | 1004.3 |
| 20260507194525 | 57 | 359 | 5.0 | 17.0 | 0.00 | 0.37 | 0.01 | 43 | 1004.5 |
| 20260507193022 | 57 | 1 | 8.0 | 14.0 | 0.00 | 0.37 | 0.01 | 37 | 1004.5 |
| 20260507191520 | 57 | 32 | 7.0 | 16.0 | 0.00 | 0.37 | 0.01 | 41 | 1004.6 |
| 20260507190118 | 57 | 25 | 5.0 | 20.0 | 0.00 | 0.37 | 0.01 | 39 | 1004.8 |
| 20260507184517 | 56 | 36 | 7.0 | 21.0 | 0.00 | 0.72 | 0.01 | 40 | 1004.7 |
| 20260507183030 | 57 | 319 | 5.0 | 14.0 | 0.00 | 0.72 | 0.01 | 42 | 1004.7 |
| 20260507181514 | 56 | 349 | 7.0 | 20.0 | 0.00 | 0.72 | 0.01 | 41 | 1004.8 |
| 20260507180012 | 56 | 347 | 7.0 | 18.0 | 0.00 | 0.72 | 0.01 | 46 | 1004.8 |
| 20260507174511 | 55 | 25 | 6.0 | 15.0 | 0.00 | 0.78 | 0.01 | 52 | 1005.1 |
| 20260507173008 | 53 | 359 | 6.0 | 16.0 | 0.00 | 0.78 | 0.01 | 47 | 1005.2 |
| 20260507171507 | 53 | 334 | 6.0 | 13.0 | 0.00 | 0.78 | 0.01 | 52 | 1005.4 |
| 20260507170006 | 53 | 341 | 4.0 | 16.0 | 0.00 | 0.78 | 0.01 | 55 | 1005.5 |
| 20260507164504 | 54 | 300 | 5.0 | 12.0 | 0.00 | 0.79 | 0.01 | 64 | 1005.5 |
| 20260507163105 | 54 | 11 | 4.0 | 12.0 | 0.00 | 0.79 | 0.01 | 59 | 1005.6 |
| 20260507161504 | 54 | 352 | 2.0 | 12.0 | 0.00 | 0.79 | 0.01 | 62 | 1005.6 |
| 20260507160002 | 55 | 349 | 0.0 | 3.0 | 0.00 | 0.79 | 0.01 | 59 | 1005.6 |
| 20260507154600 | 54 | 46 | 3.0 | 11.0 | 0.00 | 0.79 | 0.01 | 61 | 1005.8 |
| 20260507153058 | 54 | 349 | 2.0 | 7.0 | 0.00 | 0.79 | 0.01 | 63 | 1006.1 |
| 20260507151557 | 53 | 30 | 6.0 | 14.0 | 0.00 | 0.79 | 0.01 | 63 | 1006.1 |
| 20260507150105 | 54 | 349 | 3.0 | 11.0 | 0.00 | 0.79 | 0.01 | 63 | 1006.1 |
| 20260507144556 | 53 | 351 | 1.0 | 12.0 | 0.00 | 0.79 | 0.01 | 64 | 1006.0 |
| 20260507143103 | 54 | 355 | 4.0 | 10.0 | 0.00 | 0.79 | 0.01 | 62 | 1006.1 |
| 20260507141557 | 54 | 338 | 1.0 | 13.0 | 0.00 | 0.79 | 0.01 | 64 | 1006.1 |
| 20260507140051 | 53 | 69 | 1.0 | 10.0 | 0.00 | 0.79 | 0.01 | 66 | 1006.3 |
| 20260507134554 | 53 | 8 | 5.0 | 13.0 | 0.00 | 0.79 | 0.01 | 66 | 1006.4 |
| 20260507133043 | 52 | 41 | 3.0 | 12.0 | 0.00 | 0.79 | 0.01 | 66 | 1006.6 |
| 20260507131541 | 51 | 281 | 4.0 | 11.0 | 0.00 | 0.79 | 0.01 | 70 | 1006.5 |
| 20260507130036 | 51 | 18 | 5.0 | 11.0 | 0.00 | 0.79 | 0.01 | 72 | 1006.5 |
| 20260507124534 | 50 | 335 | 2.0 | 10.0 | 0.00 | 0.79 | 0.01 | 72 | 1006.6 |
| 20260507123030 | 50 | 27 | 4.0 | 11.0 | 0.00 | 0.79 | 0.01 | 73 | 1006.7 |
| 20260507121529 | 49 | 11 | 1.0 | 8.0 | 0.00 | 0.79 | 0.01 | 73 | 1006.7 |
| 20260507120028 | 49 | 32 | 2.0 | 8.0 | 0.00 | 0.79 | 0.01 | 74 | 1006.8 |
| 20260507114531 | 48 | 19 | 4.0 | 10.0 | 0.00 | 0.79 | 0.01 | 78 | 1006.8 |
| 20260507113026 | 46 | 38 | 5.0 | 9.0 | 0.00 | 0.79 | 0.01 | 79 | 1007.0 |
| 20260507111525 | 46 | 29 | 3.0 | 7.0 | 0.00 | 0.79 | 0.01 | 79 | 1007.0 |
| 20260507110025 | 46 | 323 | 3.0 | 8.0 | 0.00 | 0.79 | 0.01 | 79 | 1006.9 |
| 20260507104525 | 46 | 345 | 5.0 | 10.0 | 0.00 | 0.79 | 0.01 | 79 | 1007.2 |
| 20260507103023 | 45 | 37 | 5.0 | 9.0 | 0.00 | 0.79 | 0.01 | 82 | 1007.0 |
| 20260507101520 | 44 | 19 | 3.0 | 7.0 | 0.00 | 0.79 | 0.01 | 86 | 1006.8 |
| 20260507100017 | 43 | 1 | 1.0 | 4.0 | 0.00 | 0.79 | 0.01 | 91 | 1006.9 |
| 20260507094516 | 43 | 199 | 0.0 | 0.0 | 0.00 | 0.79 | 0.01 | 90 | 1006.8 |
| 20260507093014 | 43 | 297 | 0.0 | 3.0 | 0.00 | 0.79 | 0.01 | 90 | 1006.5 |
| 20260507091514 | 42 | 218 | 0.0 | 2.0 | 0.00 | 0.79 | 0.01 | 92 | 1006.5 |
| 20260507090013 | 43 | 193 | 0.0 | 0.0 | 0.00 | 0.79 | 0.01 | 91 | 1006.6 |
| 20260507084524 | 43 | 193 | 0.0 | 0.0 | 0.00 | 0.79 | 0.01 | 90 | 1006.6 |
| 20260507083008 | 44 | 206 | 0.0 | 5.0 | 0.00 | 0.79 | 0.01 | 88 | 1006.9 |
| 20260507081511 | 45 | 358 | 3.0 | 6.0 | 0.00 | 0.79 | 0.01 | 87 | 1006.1 |
| 20260507080003 | 45 | 352 | 3.0 | 9.0 | 0.00 | 0.79 | 0.01 | 88 | 1006.0 |
| 20260507074503 | 46 | 17 | 3.0 | 7.0 | 0.00 | 0.79 | 0.01 | 87 | 1006.3 |
| 20260507073101 | 46 | 318 | 6.0 | 9.0 | 0.00 | 0.79 | 0.01 | 85 | 1006.4 |
| 20260507071600 | 46 | 299 | 4.0 | 11.0 | 0.00 | 0.79 | 0.01 | 85 | 1006.1 |
| 20260507070104 | 46 | 318 | 7.0 | 10.0 | 0.00 | 0.79 | 0.01 | 86 | 1005.9 |
| 20260507064556 | 46 | 1 | 6.0 | 13.0 | 0.00 | 0.79 | 0.01 | 88 | 1006.0 |
| 20260507063052 | 47 | 356 | 6.0 | 12.0 | 0.00 | 0.79 | 0.01 | 89 | 1005.7 |
| 20260507061547 | 47 | 287 | 7.0 | 11.0 | 0.00 | 0.79 | 0.01 | 88 | 1005.4 |
| 20260507060059 | 47 | 321 | 7.0 | 11.0 | 0.00 | 0.79 | 0.01 | 89 | 1005.3 |
| 20260507054552 | 47 | 305 | 8.0 | 13.0 | 0.00 | 0.79 | 0.01 | 89 | 1005.4 |
| 20260507053050 | 47 | 340 | 7.0 | 11.0 | 0.00 | 0.79 | 0.01 | 90 | 1005.2 |
| 20260507051542 | 47 | 323 | 6.0 | 10.0 | 0.01 | 0.79 | 0.01 | 91 | 1005.1 |
| 20260507050042 | 47 | 349 | 5.0 | 8.0 | 0.01 | 0.79 | 0.01 | 92 | 1005.2 |
| 20260507044537 | 48 | 291 | 6.0 | 11.0 | 0.02 | 0.79 | 0.01 | 91 | 1005.2 |
| 20260507043033 | 48 | 286 | 8.0 | 14.0 | 0.03 | 0.79 | 0.01 | 91 | 1005.6 |
| 20260507041532 | 49 | 312 | 6.0 | 15.0 | 0.02 | 0.78 | 0.00 | 91 | 1005.4 |
| 20260507040026 | 50 | 297 | 6.0 | 11.0 | 0.03 | 0.78 | 0.00 | 92 | 1005.7 |
| 20260507034539 | 50 | 314 | 6.0 | 12.0 | 0.03 | 0.77 | 0.77 | 92 | 1005.6 |
| 20260507033022 | 50 | 342 | 6.0 | 11.0 | 0.03 | 0.76 | 0.76 | 91 | 1005.3 |
| 20260507031520 | 50 | 349 | 7.0 | 15.0 | 0.06 | 0.76 | 0.76 | 91 | 1005.1 |
| 20260507030019 | 51 | 347 | 5.0 | 12.0 | 0.06 | 0.75 | 0.75 | 91 | 1005.0 |
| 20260507024528 | 52 | 303 | 5.0 | 10.0 | 0.05 | 0.75 | 0.74 | 91 | 1004.8 |
| 20260507023010 | 52 | 305 | 5.0 | 9.0 | 0.03 | 0.73 | 0.72 | 91 | 1004.8 |
| 20260507021508 | 53 | 281 | 5.0 | 7.0 | 0.00 | 0.70 | 0.69 | 92 | 1004.9 |
| 20260507020006 | 53 | 297 | 3.0 | 7.0 | 0.00 | 0.70 | 0.69 | 91 | 1004.6 |
| 20260507014507 | 54 | 288 | 4.0 | 6.0 | 0.00 | 0.70 | 0.69 | 91 | 1004.6 |
| 20260507013004 | 54 | 287 | 2.0 | 5.0 | 0.00 | 0.70 | 0.69 | 92 | 1004.7 |
| 20260507011504 | 54 | 292 | 3.0 | 5.0 | 0.04 | 0.70 | 0.69 | 92 | 1004.8 |
| 20260507010005 | 55 | 270 | 3.0 | 5.0 | 0.05 | 0.70 | 0.69 | 92 | 1004.6 |
| 20260507004502 | 55 | 17 | 0.0 | 5.0 | 0.05 | 0.70 | 0.69 | 92 | 1004.6 |